STARLINK-1784, 46687

Orbit data source: Space-Track

STARLINK-1784, 46687 is a payload satellite owned by SpaceX/Seattle (US) in LEO that was launched on Sun, 18 Oct 2020 UTC via an FALCON 9 launch vehicle from the Air Force Eastern Test Range (AFETR). Payload-class satellites include a variety of spacecraft equipped with specific instruments for various scientific and technological missions. These include communications satellites like Starlink; space stations such as the ISS; scientific satellites like the Hubble; Earth observation satellites from companies like Planet Labs, Umbra, and HawkEye 360; GPS; miniature CubeSats for education and research; and military/defense satellites.

Not visible in the next 10 days
Identifier
46687, 2020-073T
Orbit
LEO
Country
Flag of USUS
Related business
Manufacturer
SpaceX/Seattle
Mission
Partially operational Commercial Communications
Bus & Motor
STARLINK, Unknown motor
Mass
260 kg wet, ~248 kg dry
Launch date (UTC)
2020-10-18 (6 years ago)
Launch vehicle
FALCON 9
Launch site
Air Force Eastern Test Range (AFETR)
Object type
Payload
Rocket body
Debris
Shape & HBR
Box + 1 Pan, 10.1 m
Radar Cross Section
13.562 m², Large (>1 m²)

Expand to show TLE details & history
Last TLE update: 8 hours ago

TLE from 8 hours ago
0 STARLINK-1784
1 46687U 20073T   26169.00003472  .00265545  37327-4  81861-3 0  9993
2 46687  53.0349  48.0662 0004138 240.6740 170.0067 15.91325142  6013
Epoch: 2026-06-18T00:00Z
TLE epoch observation values (Epoch: 2026-06-18T00:00:02.999Z)
Latitude
38.31236°
Longitude
178.05118°
Altitude
304.509 km
Speed
7.729 km/s
True Right ascension
05h 37m 15s
True Declination
38° 08' 02"
Sunlit
Object was in daylight at epoch
Visualization orbit readout
Latitude
Unknown
Longitude
Unknown
Altitude
Unknown
Speed
Unknown
Apparent Right ascension
Unknown
Apparent Declination
Unknown
Sunlit
N/A
Visualization observer readout
Local Sidereal Time
19:00:36
Azimuth
Unknown
Elevation
Unknown
Doppler factor
Unknown
Orbital elements
Apogee altitude
301.62 km
Perigee altitude
296.094 km
Semi-major axis
6,676.994 km
Eccentricity
0.00041
Inclination
53.0349°
RAAN
48.0662°
Arg. of periapsis
240.674°
True anomaly
170.01492°
Mean anomaly
170.0067°
Eccentric anomaly
170.01081°
Mean motion
3.97806 °/min
Orbital period
90.5 mins
BSTAR
0.00081861
Loading maneuver chart data...
Computing Atmospheric mass density...

Documentation

Showing up to 5 results
|